Back to catalog

STARLINK-35977

AliveCommunicationsVLEO
NORAD 66604·PAYLOAD·🇺🇸 United States

Launched Nov 22, 2025 from Cape Canaveral Space Force Station

Loading…

Next Passes (next 24 hours)

TLE

FreshSource: CelesTrak SupGP

Epoch: Sep 14, 2026, 23:11 UTC

1 66604C 25270S   26257.96645833  .00062727  00000+0  22725-2 0  2574
2 66604  43.0031  66.8444 0001697 273.1375 240.3841 15.27538846    10

Track STARLINK-35977 in real time with AllMySat

Download on the App Store